This is the latest recevied weather packets stored in our database for station/object KF6YUA. If no packets are shown the sender has not sent any weather packets the latest 10 day(s).
| Time | Temp. | Humidity | Pressure | Rain* | Wind** | Luminosity | Snow |
|---|---|---|---|---|---|---|---|
| 1777867789 | 11.11° C | 94% | 1015.9 hPa | 0 mm | - | 0 W/m² | - |
| 1777867487 | 11.11° C | 94% | 1015.9 hPa | 0 mm | - | 0 W/m² | - |
| 1777867183 | 11.11° C | 94% | 1016.1 hPa | 0 mm | - | 0 W/m² | - |
| 1777866880 | 11.67° C | 94% | 1015.6 hPa | 0 mm | - | 0 W/m² | - |
| 1777866577 | 11.67° C | 93% | 1015.5 hPa | 0 mm | - | 0 W/m² | - |
| 1777866275 | 11.67° C | 93% | 1015.7 hPa | 0 mm | - | 0 W/m² | - |
| 1777865971 | 11.67° C | 93% | 1015.8 hPa | 0 mm | - | 0 W/m² | - |
| 1777865669 | 11.67° C | 93% | 1015.8 hPa | 0 mm | - | 0 W/m² | - |
| 1777865366 | 11.67° C | 92% | 1015.5 hPa | 0 mm | - | 0 W/m² | - |
| 1777865063 | 11.67° C | 92% | 1015.5 hPa | 0 mm | - | 0 W/m² | - |
| 1777864760 | 11.67° C | 91% | 1015.2 hPa | 0 mm | - | 0 W/m² | - |
| 1777864457 | 12.22° C | 91% | 1015.6 hPa | 0 mm | - | 0 W/m² | - |
| 1777864153 | 12.22° C | 90% | 1015.5 hPa | 0 mm | - | 0 W/m² | - |
| 1777863850 | 12.22° C | 89% | 1015.4 hPa | 0 mm | - | 0 W/m² | - |
| 1777863546 | 12.78° C | 89% | 1015.2 hPa | 0 mm | - | 0 W/m² | - |
| 1777863244 | 12.78° C | 89% | 1015.3 hPa | 0 mm | - | 1 W/m² | - |
| 1777862940 | 12.78° C | 88% | 1015.4 hPa | 0 mm | - | 1 W/m² | - |
| 1777862637 | 12.78° C | 88% | 1015.4 hPa | 0 mm | - | 6 W/m² | - |
| 1777862334 | 12.78° C | 88% | 1015.3 hPa | 0 mm | - | 2 W/m² | - |
| 1777862030 | 12.78° C | 87% | 1014.9 hPa | 0 mm | - | 9 W/m² | - |
| 1777861725 | 13.33° C | 87% | 1015.1 hPa | 0 mm | - | 11 W/m² | - |
| 1777861423 | 13.33° C | 86% | 1014.9 hPa | 0 mm | - | 12 W/m² | - |
| 1777861119 | 13.33° C | 86% | 1014.9 hPa | 0 mm | - | 15 W/m² | - |
| 1777860817 | 13.33° C | 85% | 1015 hPa | 0 mm | - | 15 W/m² | - |
| 1777860514 | 13.89° C | 84% | 1015.1 hPa | 0 mm | - | 15 W/m² | - |
* Rain latest hour (hover to see other rain measurements)
** Current wind speed in m/s (hover to see current wind gust speed)